Monatsübersicht für März 2019

 
Wetter
Zeitraffer
Tageslänge (hh:mm)
Höchsttemperatur in °C
Uhrzeit
Tiefsttemperatur in °C
Uhrzeit
Luftfeuchte (max., in %)
Uhrzeit
Luftfeuchte (min., in %)
Uhrzeit
Luftdruck (max., in hPa)
Uhrzeit
Luftdruck (min., in hPa)
Uhrzeit
Luftdruck (Ø, in hPa)
Regenrate (max, mm/h)
Uhrzeit
Niederschlag in mm
Verdunstung in mm
Solar in W/m² (Ø)
Solar in W/m² (max.)
UV-Index (max.)
Sonnenscheindauer (hh:mm)
Windrichtung (Ø)
Windstärke (Ø in km/h)
Windstärke (Ø in bft)
Windböe (max., in km/h)
Uhrzeit
Windböe (max., in bft)
Uhrzeit
Taupunkt (max., in °C)
Uhrzeit
Taupunkt (min., in °C)
Uhrzeit
Windchill (min., in °C)
Uhrzeit
Gewitterindex (max.)
Uhrzeit
01
10:56
5.9
14:55 Uhr
2.4
03:55 Uhr

89
04:15 Uhr
64
16:40 Uhr
1016.2
23:10 Uhr

1009.6
06:30 Uhr
1012.0
0,000
00:00 Uhr
0,000
0.432
53
210
14:45 Uhr
0.5
14:20 Uhr

00:00:00
2,8
1
27,4
15:00 Uhr

4
2.5
00:00 Uhr
-1.3
18:45 Uhr
1.3
13:25 Uhr
0
00:00 Uhr
02
11:00
5.7
15:20 Uhr
1.8
05:30 Uhr

85
06:10 Uhr
60
15:30 Uhr
1016.4
00:20 Uhr

1011.5
23:25 Uhr
1014.8
0,000
00:00 Uhr
0,000
0.610
84
185
13:30 Uhr
0.7
13:20 Uhr

00:00:00
2,9
1
20,9
12:40 Uhr

4
0.9
10:35 Uhr
-1.9
16:20 Uhr
1.4
13:50 Uhr
0
00:00 Uhr
03
11:05
10.8
15:55 Uhr
3.8
00:00 Uhr

92
04:35 Uhr
73
10:20 Uhr
1011.4
00:00 Uhr

1000.5
23:15 Uhr
1005.8
2,400
04:20 Uhr
2,800
0.610
57
109
09:35 Uhr
0.0
00:00 Uhr

00:00:00
8,1
2
33,8
10:30 Uhr

5
7.9
16:20 Uhr
0.9
00:00 Uhr
3.8
00:00 Uhr
0
00:00 Uhr
04
11:09
14.4
12:25 Uhr
6.1
18:50 Uhr

86
17:30 Uhr
48
16:05 Uhr
1000.5
00:00 Uhr

987.4
17:00 Uhr
992.9
33,600
17:15 Uhr
5,800
1.549
125
509
11:45 Uhr
1.4
11:45 Uhr

01:45:00
11,7
2
62,8
12:30 Uhr

7
7.3
00:00 Uhr
0.7
22:50 Uhr
-1.9
17:20 Uhr
0
00:00 Uhr
05
11:13
9.8
14:15 Uhr
2.9
23:10 Uhr

88
22:05 Uhr
56
14:50 Uhr
1010.2
23:25 Uhr

995.1
00:00 Uhr
1001.2
4,800
10:25 Uhr
1,400
1.676
161
559
11:55 Uhr
1.1
11:45 Uhr

02:25:00
13,1
3
57,9
10:25 Uhr

7
3.9
11:30 Uhr
0.6
00:25 Uhr
-4.6
10:30 Uhr
0
00:00 Uhr
06
11:17
11.8
14:25 Uhr
0.1
06:25 Uhr

90
06:35 Uhr
49
14:20 Uhr
1012.3
07:35 Uhr

1000.9
23:00 Uhr
1008.3
0,000
00:00 Uhr
0,000
1.829
240
496
13:50 Uhr
1.3
11:45 Uhr

06:55:00
6,9
1
35,4
13:15 Uhr

5
3.6
17:00 Uhr
-1.5
06:25 Uhr
0.1
06:25 Uhr
0
00:00 Uhr
07
11:21
16.9
13:50 Uhr
7.5
06:00 Uhr

82
05:10 Uhr
45
13:55 Uhr
1000.6
00:00 Uhr

994.0
13:00 Uhr
997.1
2,400
02:20 Uhr
0,800
1.753
144
469
13:55 Uhr
1.2
12:25 Uhr

01:55:00
8,5
2
48,3
16:25 Uhr

6
6.8
16:50 Uhr
2.8
22:15 Uhr
5.7
16:35 Uhr
0
00:00 Uhr
08
11:25
9.1
07:20 Uhr
0.0
11:10 Uhr

70
03:25 Uhr
0
11:10 Uhr
1013.5
22:25 Uhr

997.4
06:55 Uhr
1005.0
0,000
00:00 Uhr
0,000
0.457
25
28
07:55 Uhr
0.0
00:00 Uhr

00:00:00
7,1
2
49,9
06:40 Uhr

6
2.9
07:50 Uhr
-60.0
11:10 Uhr
0.0
11:10 Uhr
0
00:00 Uhr